Regional Weather Roundup
Issued by NWS Charleston, WV

Home | Current Version | Previous Version | Text Only | Print | Product List | Glossary Off
Versions: 1 2 3 4 5 6 7 8 9 10 11 12 13 14 15 16 17 18 19 20 21 22 23 24 25 26 27 28 29 30 31 32 33 34 35 36 37 38 39 40 41 42 43 44 45 46 47 48 49 50

000
ASUS41 KRLX 031010
RWRRLX
West Virginia Regional Weather Roundup
National Weather Service Charleston WV
600 AM EDT THU SEP 03 2015

Note: "fair" indicates few or no clouds below 12,000 feet with no
significant weather and/or obstructions to visibility.

WVZ003-031100-
Northern Panhandle of West Virginia

CITY           SKY/WX    TMP DP  RH WIND       PRES   REMARKS
WHEELING       CLEAR     69  65  86 CALM      30.00R
$$

WVZ009-031100-
Northwest West Virginia

CITY           SKY/WX    TMP DP  RH WIND       PRES   REMARKS
PARKERSBURG    MOCLDY    67  65  93 CALM      30.03S FOG
$$

WVZ006-031100-
Western West Virginia

CITY           SKY/WX    TMP DP  RH WIND       PRES   REMARKS
HUNTINGTON     FOG       66  66 100 SW3       30.02R VSB 1/4
$$

WVZ015-031100-
West Central West Virginia

CITY           SKY/WX    TMP DP  RH WIND       PRES   REMARKS
CHARLESTON     PTCLDY    66  65  96 CALM      30.02S FOG
$$

WVZ022-031-031100-
North Central West Virginia

CITY           SKY/WX    TMP DP  RH WIND       PRES   REMARKS
CLARKSBURG     CLEAR     63  62  97 CALM      30.02R
MORGANTOWN     PTCLDY    68  62  81 CALM      30.02S
$$

WVZ025-035-042-045-031100-
Southern West Virginia

CITY           SKY/WX    TMP DP  RH WIND       PRES   REMARKS
BECKLEY        CLEAR     63  61  93 S3        30.09S FOG
LOGAN          FOG       64  64 100 CALM      30.05S VSB<1/4
BLUEFIELD      PTCLDY    65  60  84 W7        30.12R
LEWISBURG      FOG       62  60  94 CALM      30.09R VSB 1/4
$$

WVZ047-031100-
Northern Mountains of West Virginia

CITY           SKY/WX    TMP DP  RH WIND       PRES   REMARKS
ELKINS         MOCLDY    60  58  92 S3        30.07F
$$

WVZ052-031100-
Eastern Panhandle of West Virginia

CITY           SKY/WX    TMP DP  RH WIND       PRES   REMARKS
MARTINSBURG    CLEAR     63  62  97 CALM      29.95S FOG
PETERSBURG     FOG       63  63 100 CALM      30.01R VSB 1/4
$$



USA.gov is the U.S. government's official web portal to all federal, state and local government web resources and services.